Flag for Ireland Weather past 2 weeks in Galway, Ireland

Now
64 °F

Scattered showers. Broken clouds.


Feels Like: 64 °F
Forecast: 58 / 62 °F
Wind: 21 mph from South

Location: Shannon Airport

Current Time: Aug 28, 2014 at 4:41:38 PM

Latest Report: Aug 28, 2014 at 4:00 PM


Visibility: 4 mi

Pressure: 29.56 "Hg

Humidity: 60%

Dew point: 50 °F

Location of GalwayLocation

Historic Weather in Galway — Graph

°F

Galway temperature yesterday

Maximum temperature yesterday: 63 °F (at 1:00 PM)
Minimum temperature yesterday: 57 °F (at 11:30 PM)
Average temperature yesterday: 61 °F

Past Weeks' High & Low Weather Summary

 TemperatureHumidityPressure
High72 °F (Aug 25, 2:30 PM)100% (Aug 17, 12:00 AM)30.24 "Hg (Aug 17, 12:00 AM)
Low43 °F (Aug 23, 3:30 AM)40% (Aug 23, 4:00 PM)29.36 "Hg (Aug 25, 5:00 PM)
Average58 °F74%29.92 "Hg
* Reported Aug 13 3:00 PM — Aug 28 3:30 PM, Galway, Weather by CustomWeather, © 2014

Note: Actual official high and low records may vary slightly from our data, if they occured in-between our weather recording intervals... More about our weather records

Advertising

Galway weather history for previous 24 hours

 ConditionsComfort  
Time TempWeatherWind HumidityBarometerVisibility
3:30 PM
Aug 28
63 °FSprinkles. Partly sunny.23 mph64%29.56 "HgN/A
3:00 PM64 °FBroken clouds.23 mph56%29.56 "HgN/A
2:30 PM64 °FPartly sunny.25 mph56%29.56 "HgN/A
2:00 PM64 °FScattered clouds.18 mph52%29.56 "HgN/A
1:30 PM64 °FScattered clouds.22 mph49%29.59 "HgN/A
12:30 PM64 °FScattered clouds.20 mph56%29.59 "HgN/A
12:00 PM63 °FScattered clouds.14 mph59%29.59 "HgN/A
11:30 AM61 °FPassing clouds.15 mph72%29.59 "HgN/A
11:00 AM57 °FPassing clouds.13 mph82%29.59 "HgN/A
10:30 AM57 °FSprinkles. Partly sunny.18 mph82%29.59 "Hg4 mi
10:00 AM59 °FSprinkles. Scattered clouds.18 mph72%29.59 "HgN/A
9:30 AM59 °FPassing clouds.15 mph72%29.62 "HgN/A
9:00 AM57 °FPassing clouds.16 mph72%29.62 "HgN/A
8:30 AM55 °FPassing clouds.14 mph77%29.62 "HgN/A
8:00 AM54 °FPassing clouds.9 mph77%29.62 "HgN/A
7:30 AM54 °FPassing clouds.14 mph77%29.62 "HgN/A
7:00 AM52 °FClear.10 mph88%29.62 "Hg10 mi
6:30 AM52 °FClear.12 mph82%29.62 "Hg10 mi
6:00 AM54 °FClear.12 mph77%29.62 "Hg10 mi
5:30 AM54 °FClear.9 mph77%29.62 "Hg10 mi
5:00 AM54 °FClear.9 mph77%29.62 "Hg10 mi
4:30 AM55 °FClear.10 mph72%29.62 "Hg10 mi
4:00 AM55 °FClear.14 mph77%29.62 "Hg10 mi
3:30 AM57 °FClear.12 mph77%29.62 "Hg10 mi
3:00 AM57 °FPassing clouds.12 mph82%29.62 "HgN/A
2:30 AM57 °FPartly cloudy.8 mph88%29.62 "HgN/A
2:00 AM55 °FPartly cloudy.9 mph88%29.59 "HgN/A
1:30 AM57 °FSprinkles. Passing clouds.10 mph88%29.59 "HgN/A
1:00 AM57 °FClear.10 mph88%29.59 "Hg10 mi
12:30 AM55 °FClear.10 mph88%29.59 "Hg10 mi
12:00 AM55 °FPassing clouds.10 mph88%29.59 "HgN/A
11:30 PM
Aug 27
57 °FPassing clouds.7 mph82%29.59 "HgN/A
11:00 PM59 °FClear.10 mph72%29.59 "Hg10 mi
10:30 PM59 °FClear.10 mph77%29.56 "Hg10 mi
10:00 PM59 °FPassing clouds.10 mph77%29.56 "HgN/A
9:30 PM59 °FScattered clouds.7 mph82%29.56 "HgN/A
9:00 PM61 °FPassing clouds.16 mph72%29.53 "HgN/A
8:30 PM61 °FScattered clouds.14 mph77%29.53 "HgN/A
8:00 PM63 °FPartly sunny.15 mph77%29.53 "HgN/A
7:00 PM63 °FDrizzle. Partly sunny.17 mph88%29.47 "HgN/A
6:30 PM63 °FPartly sunny.23 mph83%29.47 "HgN/A
6:00 PM63 °FPartly sunny.23 mph83%29.47 "HgN/A
5:30 PM63 °FPartly sunny.21 mph83%29.47 "HgN/A
5:00 PM63 °FBroken clouds.24 mph88%29.47 "HgN/A
4:00 PM63 °FBroken clouds.23 mph83%29.50 "HgN/A
Weather by CustomWeather, © 2014

See weather overviewHow to use our weather pages